Estación Meteorológica Peña el Pijo (Robertgarden) [ 09/29/20 21:56:33 CEST ]

Fecha Hora Presion(HPa) Temp (°C) Humedad % Rocio (°C) Viento ( m/s) Direccion Lluvia 1Hora(mm) Lluvia 24H(mm) LLuvia Total(mm)
2020-Apr-26 01:08:56 1001.700 - - - - W     39.88
2020-Apr-26 02:08:41 1002.000 - - - - W     39.88
2020-Apr-26 03:09:23 1001.700 - - - - W     39.88
2020-Apr-26 04:09:24 1001.600 - - - - W     39.88
2020-Apr-26 05:09:01 1001.600 - - - - W     39.88
2020-Apr-26 06:08:58 1001.300 - - - - W     39.88
2020-Apr-26 07:10:17 1001.500 - - - - W     39.88
2020-Apr-26 08:10:38 1001.800 - - - - W     39.88
2020-Apr-26 09:10:27 1002.400 - - - - W     39.88
2020-Apr-26 10:09:47 1002.900 - - - - W     39.88
2020-Apr-26 11:09:32 1003.100 - - - - W     39.88
2020-Apr-26 12:09:28 1003.600 - - - - W     39.88
2020-Apr-26 13:09:22 1003.100 - - - - W     39.88
2020-Apr-26 14:09:16 1002.800 - - - - W     39.88
2020-Apr-26 15:08:54 1002.200 - - - - W     39.88
2020-Apr-26 16:09:18 1001.900 - - - - W     39.88
2020-Apr-26 17:09:03 1001.800 - - - - W     39.88
2020-Apr-26 18:09:17 1001.800 - - - - W     39.88
2020-Apr-26 19:09:21 1002.400 - - - - W     39.88
2020-Apr-26 20:09:39 1003.000 - - - - W     39.88
2020-Apr-26 21:09:43 1003.100 - - - - W     39.88
2020-Apr-26 22:09:19 1003.600 - - - - W     39.88
2020-Apr-26 23:08:46 1004.000 - - - - W     39.88

Temperatura Máxima:    Temperatura Mínima:
Presión Máxima:1004.000 Hpa    Presión Mínima:1001.300 Hpa


Volver